User: anonymous   Login
Location: Unspecified
(0.0000°N, 0.0000°E)
Time: 10:38:49
(UTC+00:00)
Language:

Courier 1B Rocket - Orbit

View from above orbital plane
View from above orbital plane
View from above satellite
View from above satellite

Ground track
Ground track

The orbit data is extracted from the following two-line orbital elements,

1 00059U 60013B   15088.85936235  .00000177  00000-0  11933-3 0  9992
2 00059 028.2480 291.5805 0189225 124.2395 237.6229 13.52916987688726
Epoch (UTC): 29 March 2015 20:37:28
Eccentricity: 0.0189225
inclination: 28.2480°
perigee height: 921 km
apogee height: 1202 km
right ascension of ascending node: 291.5805°
argument of perigee: 124.2395°
revolutions per day: 13.52916987
mean anomaly at epoch: 237.6229°
orbit number at epoch: 68872

The dashed part of the orbit path shows where the satellite is in the earth's shadow,  

DLR